GOES 1 (SMS-C) 1 08366U 75100A 25260.13580456 -.00000171 00000+0 00000+0 0 9991 2 08366 5.3083 280.8388 0004803 318.4418 71.0479 1.00230920182337 GOES 2 1 10061U 77048A 25260.06847795 -.00000171 00000+0 00000+0 0 9993 2 10061 7.0739 295.5990 0010720 43.3447 327.3037 0.99395903 43560 GOES 3 1 10953U 78062A 25259.93866161 -.00000221 00000+0 00000+0 0 9998 2 10953 7.5237 301.2207 0002528 273.4673 110.0156 0.99364976125823 GOES 4 1 11964U 80074A 25260.19785816 .00000044 00000+0 00000+0 0 9996 2 11964 8.5826 304.9635 0030487 104.5197 236.2524 0.99229854124729 GOES 5 1 12472U 81049A 25260.13360772 -.00000300 00000+0 00000+0 0 9994 2 12472 9.8509 317.4282 0003666 283.2463 96.9550 1.00265164120119 GOES 6 1 14050U 83041A 25260.13866457 -.00000252 00000+0 00000+0 0 9999 2 14050 10.6289 322.9773 0003831 233.8411 128.8254 1.00240985213283 GOES 7 1 17561U 87022A 25259.88477071 -.00000214 00000+0 00000+0 0 9990 2 17561 13.1763 339.5479 0000770 85.1306 344.0758 0.99891468124237 GOES 8 1 23051U 94022A 25259.28243322 -.00000100 00000+0 00000+0 0 9997 2 23051 14.1950 15.7279 0003397 91.1627 270.7355 0.98904056121422 GOES 9 1 23581U 95025A 25259.87854550 -.00000056 00000+0 00000+0 0 9995 2 23581 13.7182 16.5090 0008336 170.8897 218.2374 0.98798136110060 GOES 10 1 24786U 97019A 25259.88354137 .00000032 00000+0 00000+0 0 9998 2 24786 12.8034 23.0316 0031604 228.0212 135.5484 0.99120898103362 GOES 11 1 26352U 00022A 25259.28884659 -.00000238 00000+0 00000+0 0 9997 2 26352 11.2193 49.0495 0004412 197.1566 166.1269 0.99043322 49763 GOES 12 1 26871U 01031A 25259.92236821 -.00000056 00000+0 00000+0 0 9995 2 26871 11.6847 39.5299 0004313 276.0264 281.1985 0.99135090 88059 EWS-G1 (GOES 13) 1 29155U 06018A 25260.16821804 .00000041 00000+0 00000+0 0 9995 2 29155 3.8184 79.7439 0058883 267.3194 138.0414 0.98784145 40552 GOES 14 1 35491U 09033A 25260.24628236 -.00000087 00000+0 00000+0 0 9999 2 35491 0.9703 86.5548 0003790 108.3822 141.8151 1.00269912 3859 EWS-G2 (GOES 15) 1 36411U 10008A 25260.16683137 .00000018 00000+0 00000+0 0 9991 2 36411 0.5839 85.4220 0005177 138.0494 254.2909 1.00271109 56904 GOES 16 1 41866U 16071A 25259.63434557 -.00000110 00000+0 00000+0 0 9991 2 41866 0.1157 87.1512 0002401 128.3946 263.9807 1.00270826 32360 GOES 17 1 43226U 18022A 25260.20825819 -.00000203 00000+0 00000+0 0 9994 2 43226 0.2312 92.5636 0002649 151.4891 97.8158 1.00271672 27685 GOES 18 1 51850U 22021A 25259.69925919 .00000077 00000+0 00000+0 0 9991 2 51850 0.0369 35.1370 0000709 218.9079 216.5769 1.00270636 3857 GOES 19 1 60133U 24119A 25259.06921811 -.00000267 00000+0 00000+0 0 9995 2 60133 0.0302 12.8458 0000828 250.5397 41.6033 1.00272174 4215